Regional Weather Roundup
Issued by NWS

Home | Current Version | Previous Version | Graphics & Text | Print | Product List | Glossary Off
Versions: 1 2 3 4 5 6 7 8 9 10 11 12 13 14 15 16 17 18 19 20 21 22 23 24 25 26 27 28 29 30 31 32 33 34 35 36 37 38 39 40 41 42 43 44 45 46 47 48 49 50

000
ASUS43 KTOP 220359
RWRKS

WEATHER ROUNDUP FOR KANSAS
NATIONAL WEATHER SERVICE GOODLAND KS
1100 PM CDT THU AUG 21 2014

NOTE:  "FAIR" INDICATES FEW OR NO CLOUDS BELOW 12,000 FEET WITH NO
SIGNIFICANT WEATHER AND/OR OBSTRUCTIONS TO VISIBILITY.

KSZ001>006-013>018-027>032-041>047-220500-
NORTHWEST KANSAS

CITY           SKY/WX    TMP DP  RH WIND       PRES   REMARKS
GOODLAND       CLEAR     72  54  53 E5        30.00S
HAYS           PTCLDY    81  64  57 NE10      29.89R
HILL CITY      CLEAR     81  67  62 N8        29.89S
RUSSELL        MOCLDY    80  68  66 NE9       29.88R
$$

KSZ061>065-074>080-084>089-220500-
SOUTHWEST KANSAS

CITY           SKY/WX    TMP DP  RH WIND       PRES   REMARKS
DODGE CITY     CLOUDY    82  63  52 SW6       29.92R
ELKHART          N/A     72  59  64 S6          N/A
GARDEN CITY    MOCLDY    79  61  53 SW5       29.94R
GREAT BEND     CLEAR     86  64  48 S14       29.86S
LIBERAL        MOCLDY    82  59  44 S7        29.95R
$$

KSZ066>073-081>083-090>101-220500-
SOUTHEAST KANSAS

CITY           SKY/WX    TMP DP  RH WIND       PRES   REMARKS
CHANUTE        CLEAR     83  70  64 S16G24    29.95S
COFFEYVILLE    CLEAR     82  71  69 S8        29.96R
HUTCHINSON     CLEAR     87  68  52 S21G26    29.89S
NEWTON         CLEAR     84  66  54 S17G24    29.94S
PARSONS        CLEAR     83  70  64 S10       29.97S
WICHITA INTL   CLEAR     85  70  60 S17G26    29.90S
WICHITA JABRA  CLEAR     85  70  60 S18G25    29.91S
WINFIELD       CLEAR     84  71  65 S15       29.94S
$$

KSZ007>012-019>026-033>040-048>060-102>105-220500-
NORTHEAST KANSAS

CITY           SKY/WX    TMP DP  RH WIND       PRES   REMARKS
CONCORDIA      TSTM      71  69  93 S23G37    29.99R FOG
EMPORIA        CLEAR     83  73  72 S17       29.91S
LAWRENCE       CLEAR     88  72  58 S15       29.89S
MANHATTAN      PTCLDY    89  68  49 S12       29.86R
OLATHE IND     CLEAR     84  72  67 S12       29.93R
OLATHE EXE     CLEAR     82  71  69 S9        29.92R
SALINA         PTCLDY    89  68  49 S14G22    29.87R
TOPEKA BILLARD PTCLDY    88  74  63 S15       29.88S HX  96
TOPEKA FORBES  CLEAR     86  72  62 S15       29.89S
$$



USA.gov is the U.S. government's official web portal to all federal, state and local government web resources and services.